Location: Newark
(44.4167°N, 26.1000°E)
Time: 08:05:38
(UTC+00:00)

N. Korean satellite - Visible Passes

Search period start: 18 September 2020 00:00
Search period end: 28 September 2020 00:00
Orbit: 455 x 503 km, 97.2° (Epoch: 17 September)

Date Brightness Start Highest point End Pass type
(mag) Time Alt. Az. Time Alt. Az. Time Alt. Az.
19 Sep 9.0 03:16:17 10° NE 03:19:31 28° E 03:22:43 10° SSE visible
20 Sep 9.9 02:51:14 10° NE 02:53:20 15° E 02:55:25 10° SE visible
22 Sep 8.0 03:31:23 10° NNE 03:34:55 44° E 03:38:23 10° S visible
23 Sep 9.5 03:05:54 10° NE 03:08:46 21° E 03:11:37 10° SE visible
24 Sep 10.3 02:41:36 10° ENE 02:42:32 11° E 02:43:28 10° ESE visible
26 Sep 8.7 03:20:51 10° NNE 03:24:10 32° E 03:27:25 10° SSE visible
27 Sep 9.8 02:55:38 10° NE 02:57:58 16° E 03:00:17 10° SE visible
